User: anonymous   Login
Location: Angwan Shehu
(11.2514°N, 7.4613°E)
Time: 00:44:20
(UTC+00:00)
Language:

Courier 1B Rocket - Orbit

View from above orbital plane
View from above orbital plane
View from above satellite
View from above satellite

Ground track
Ground track

The orbit data is extracted from the following two-line orbital elements,

1 00059U 60013B   21108.34398023  .00000095  00000-0  99115-5 0  9992
2 00059  28.2486  92.0399 0189049 325.2480  33.5844 13.52983727987685
Epoch (UTC): 18 April 2021 08:15:19
Eccentricity: 0.0189049
inclination: 28.2486°
perigee height: 920 km
apogee height: 1202 km
right ascension of ascending node: 92.0399°
argument of perigee: 325.2480°
revolutions per day: 13.52983727
mean anomaly at epoch: 33.5844°
orbit number at epoch: 98768

The dashed part of the orbit path shows where the satellite is in the earth's shadow,  

DLR